Hourly Data Report for September 16, 2017

All times are specified in Local Standard Time (LST). Add 1 hour to adjust for Daylight Saving Time where and when it is observed.

TORONTO INTL A
ONTARIO

43°40'36.000" N
79°37'50.000" W
173.40 m
6158731
71624
YYZ

Download Data

Hourly Data (September 2017)
Hourly Data Report for September 16, 2017
Temp Definition
°C
Dew Point Temp Definition
°C
Rel Hum Definition
%
Wind Dir Definition
10's deg

Wind Spd Definition
km/h
Visibility Definition
km
Stn Press Definition
kPa
Hmdx Definition


Wind Chill Definition


Weather Definition


TIME
00:00 Legend Double Dagger 18.8 15.4 81 30 7 24.1 100.01     LegendNANA
01:00 Legend Double Dagger 19.1 15.4 79 32 7 24.1 100.02     Clear
02:00 Legend Double Dagger 17.9 15.3 85 2 8 24.1 100.04     LegendNANA
03:00 Legend Double Dagger 17.2 14.5 84 32 3 24.1 100.05     LegendNANA
04:00 Legend Double Dagger 15.6 13.8 89 29 5 24.1 100.07     Mainly Clear
05:00 Legend Double Dagger 16.0 14.2 89 27 7 24.1 100.09     LegendNANA
06:00 Legend Double Dagger 16.7 15.0 90 24 5 24.1 100.10     LegendNANA
07:00 Legend Double Dagger 17.2 14.8 85 28 5 24.1 100.14     Clear
08:00 Legend Double Dagger 19.6 16.0 79 28 3 24.1 100.18     LegendNANA
09:00 Legend Double Dagger 21.4 16.2 72 31 5 24.1 100.22 26   LegendNANA
10:00 Legend Double Dagger 23.5 14.8 57 24 6 24.1 100.22 27   Clear
11:00 Legend Double Dagger 25.4 14.6 51 24 4 24.1 100.19 29   LegendNANA
12:00 Legend Double Dagger 26.5 14.7 48 24 5 24.1 100.15 30   LegendNANA
13:00 Legend Double Dagger 26.6 15.2 49 16 12 24.1 100.11 31   Clear
14:00 Legend Double Dagger 27.0 14.9 47 15 11 24.1 100.09 31   LegendNANA
15:00 Legend Double Dagger 26.1 14.7 49 14 16 24.1 100.06 30   LegendNANA
16:00 Legend Double Dagger 25.5 14.9 51 15 16 24.1 100.03 29   Clear
17:00 Legend Double Dagger 24.9 15.3 54 15 13 24.1 99.99 29   LegendNANA
18:00 Legend Double Dagger 23.8 15.2 58 15 9 24.1 99.98 28   LegendNANA
19:00 Legend Double Dagger 22.4 15.5 65 15 8 24.1 99.98 27   Mainly Clear
20:00 Legend Double Dagger 21.5 15.8 70 14 9 24.1 100.02 26   LegendNANA
21:00 Legend Double Dagger 20.4 16.4 77 11 6 24.1 100.03 25   LegendNANA
22:00 Legend Double Dagger 20.1 16.4 79 36 1 24.1 100.05 25   Clear
23:00 Legend Double Dagger 19.8 16.1 79 13 3 24.1 100.03     LegendNANA

Notes on Data Quality.

Legend

  • E = Estimated
  • M = Missing
  • NA = Not Available
  • ‡ = Partner data that is not subject to review by the National Climate Archives
Date modified: